Theta_e
327 327 327 328 327 324 324 322 323 323 323 323 323 323 324 327 328 327 328 327 327 328 330 330 329 329 329 329 329 329 329 329 329 329 328 327 328 327 327 326 325 324 323
327 326 327 328 327 326 324 323 324 323 323 323 325 325 326 328 328 328 328 327 327 327 329 329 329 328 327 328 329 329 329 329 329 328 328 328 327 327 326 325 324 323 322
326 326 327 328 327 326 324 323 324 324 324 325 327 327 327 327 328 328 328 327 327 328 328 328 328 328 327 328 328 328 328 328 328 328 327 327 326 325 325 324 322 320 316
325 325 327 328 327 326 325 326 325 325 325 327 327 327 327 327 327 325 327 326 327 327 328 328 328 327 327 328 328 328 328 327 327 327 326 325 326 326 325 324 323 322 320
323 327 328 327 327 325 326 325 325 325 326 327 328 327 327 326 326 326 326 326 326 328 329 329 328 328 327 328 328 327 327 327 327 327 326 326 326 326 326 325 324 320 320
322 326 327 326 326 325 325 325 326 325 326 327 328 327 327 326 325 325 325 326 326 327 329 329 329 328 328 327 328 327 328 327 326 327 326 325 326 326 325 323 322 321 319
322 326 327 326 325 325 325 325 326 326 326 326 327 327 327 327 327 326 326 326 326 327 328 328 329 328 327 327 327 327 326 326 327 327 327 327 326 327 326 320 318 316 321
322 325 325 326 324 325 325 325 325 326 326 325 326 328 328 328 327 325 327 327 326 326 327 328 328 327 327 327 327 327 326 325 325 325 326 326 326 326 325 317 317 319 322
321 323 324 324 326 325 326 326 323 326 325 324 325 328 328 328 327 325 327 328 328 327 328 329 328 328 327 326 327 327 327 327 328 327 327 323 322 322 321 320 321 321 323
321 321 324 322 326 324 326 326 322 323 325 325 325 327 327 327 326 326 325 327 328 328 328 327 327 327 326 327 328 324 322 326 327 327 326 325 328 325 322 322 323 323 319
322 321 322 321 325 325 324 325 323 321 324 323 324 325 327 327 328 327 326 327 327 328 327 326 326 326 327 327 327 322 323 324 325 326 326 326 326 327 325 323 326 323 314
321 321 320 320 324 323 323 324 323 321 323 322 321 321 323 327 328 327 327 327 326 327 327 327 327 326 326 327 326 320 317 315 314 318 315 312 313 313 314 314 315 317 316
321 320 320 319 322 324 324 325 321 320 320 319 319 319 322 324 327 327 327 327 327 327 327 327 326 326 326 325 324 320 318 314 316 317 317 317 317 316 315 314 311 309 308
320 320 319 318 320 325 324 324 323 319 318 318 318 318 319 322 323 325 325 326 326 324 322 320 320 320 320 320 319 318 318 317 316 317 319 319 315 312 311 310 309 308 308
320 319 319 319 318 323 325 324 323 322 322 319 319 319 319 319 323 324 322 323 323 323 320 318 316 316 317 317 318 318 317 316 317 318 318 316 311 309 308 309 308 307 304
317 318 318 318 317 318 323 324 324 324 324 324 324 322 322 320 320 322 322 322 321 320 317 318 319 317 316 316 316 316 315 315 316 318 317 315 312 309 307 306 306 306 303
317 316 316 317 318 318 320 323 323 324 324 324 325 325 324 323 323 319 319 318 316 319 319 318 317 318 318 317 316 316 317 315 315 317 317 316 313 308 305 304 304 302 300
318 318 316 316 317 319 320 321 322 323 323 324 325 326 325 325 325 325 322 316 310 310 313 315 317 316 314 317 316 315 315 311 310 315 315 314 310 307 304 303 302 301 298
317 316 317 316 317 319 320 321 321 322 323 323 324 325 326 325 325 325 323 320 317 312 310 310 311 313 314 313 314 314 314 312 310 312 314 312 308 305 303 303 302 300 298
318 318 317 317 318 320 321 321 321 321 321 322 323 324 325 322 321 321 321 321 319 317 317 314 310 309 311 312 311 309 309 310 310 311 312 309 306 304 303 302 300 298 297
319 318 318 318 319 320 321 321 321 321 320 320 322 322 323 322 320 320 321 321 320 319 319 319 318 313 308 310 311 308 305 306 308 311 310 306 304 303 302 301 299 297 296
320 318 317 319 319 320 321 321 321 321 320 320 320 321 322 321 320 319 318 320 321 319 318 320 320 319 318 310 309 312 308 304 305 309 308 305 303 302 300 298 297 296 296
320 319 318 319 319 320 320 321 321 321 320 320 320 319 320 320 320 320 320 320 318 318 318 318 318 318 318 317 312 310 312 311 310 308 307 303 301 300 299 297 296 296 295
322 320 319 318 318 319 320 320 320 321 320 320 320 320 320 320 320 320 320 320 320 320 320 318 317 316 316 316 314 311 311 313 311 307 306 302 300 300 299 298 297 297 295
323 322 320 319 318 318 319 319 319 320 320 320 320 320 320 320 320 320 320 320 320 320 319 317 316 314 313 312 312 310 309 311 310 307 302 301 300 299 298 298 298 295 293
324 322 321 321 320 319 319 318 319 319 319 319 319 319 319 319 320 320 320 320 318 318 316 315 314 313 312 311 310 309 308 309 307 305 302 302 300 299 298 300 298 294 290
Wind_Speed
11 9 8 7 6 6 5 7 7 6 8 7 4 4 3 4 6 6 7 6 9 11 11 12 16 20 23 22 26 24 22 25 15 21 26 29 26 24 23 20 17 14 11
12 9 7 8 7 7 6 8 5 6 7 6 5 6 6 7 7 7 9 10 11 10 12 13 17 18 21 22 23 22 26 28 25 22 22 24 27 25 22 19 15 11 10
11 10 8 8 8 6 7 8 6 7 8 8 7 8 10 9 9 10 11 13 12 11 12 15 18 20 21 23 21 24 26 28 29 21 14 20 26 25 19 14 11 11 11
11 11 11 7 7 7 10 8 8 8 11 10 9 11 11 10 8 9 12 14 13 11 11 16 19 22 26 25 24 23 24 26 28 25 22 22 22 19 16 15 13 10 9
14 13 11 8 9 10 14 12 11 11 10 11 12 13 12 9 9 9 12 14 14 13 13 14 17 21 24 25 27 25 28 25 24 21 18 18 16 17 14 12 11 9 7
16 14 12 11 11 12 15 15 13 12 10 11 11 12 13 11 9 8 8 13 13 14 16 15 18 17 19 23 24 24 24 27 22 18 15 16 15 15 13 13 14 8 4
18 16 15 14 13 13 15 14 13 10 11 11 10 9 11 11 11 9 7 10 14 15 17 22 24 20 19 19 21 23 21 17 21 23 23 15 13 15 15 13 14 12 7
20 18 17 18 17 15 15 13 10 9 12 12 9 6 11 13 13 12 10 14 16 18 20 24 26 24 26 24 23 19 14 12 12 11 5 6 8 15 15 12 13 12 10
23 20 18 17 19 20 18 13 9 10 12 12 9 10 12 15 16 14 14 18 19 19 20 23 26 22 21 17 15 12 7 8 10 9 7 6 8 11 13 12 13 14 4
26 24 22 18 21 24 19 15 11 10 10 11 11 10 12 14 14 13 14 19 22 20 18 22 22 19 21 15 7 5 11 11 11 12 11 8 5 13 12 11 10 15 10
27 26 23 20 22 23 22 19 15 12 13 11 12 11 12 13 13 13 12 14 18 21 21 20 17 16 15 9 3 7 11 13 12 15 16 14 12 13 12 10 11 10 14
27 28 24 23 21 21 22 22 19 17 15 13 12 11 10 12 13 14 13 13 15 18 19 17 17 17 13 8 7 10 7 10 14 16 16 16 16 16 15 15 15 14 12
27 29 27 26 22 22 21 23 22 21 19 16 14 12 11 12 13 13 13 12 11 12 13 14 15 15 14 12 12 11 8 11 13 15 17 17 17 18 21 23 23 21 21
29 30 29 26 25 24 23 24 25 24 22 20 18 16 14 14 13 15 15 14 14 14 13 14 14 14 14 13 13 12 14 14 14 16 17 19 22 24 26 26 25 23 21
32 31 31 29 29 26 26 26 27 25 25 25 23 20 20 18 19 16 18 17 17 16 14 14 15 15 15 15 15 16 16 15 14 16 20 25 27 26 24 22 24 20 18
29 30 32 31 30 30 27 24 26 28 28 25 23 25 23 20 20 21 19 17 18 19 18 18 18 19 20 20 20 19 17 17 18 20 24 26 28 27 26 25 22 21 24
33 31 32 32 31 30 29 27 22 23 21 26 25 24 24 22 21 21 24 22 20 21 21 21 22 24 26 26 24 23 22 19 18 21 24 26 28 29 30 23 21 22 20
37 37 37 33 29 28 29 29 27 24 22 23 25 24 21 24 21 21 24 24 24 25 26 24 26 27 28 29 29 28 25 23 23 25 26 28 29 32 30 26 27 26 22
36 36 37 35 34 32 30 29 29 26 25 26 26 25 25 23 23 22 23 29 30 30 31 30 29 28 28 30 32 32 32 28 27 27 29 30 31 32 27 29 29 27 25
36 37 38 34 31 31 29 28 25 25 25 28 28 31 28 26 25 27 27 29 30 31 32 33 34 33 30 29 31 31 32 29 26 28 31 33 33 34 31 32 31 30 22
32 36 40 32 32 32 30 29 28 27 26 27 33 33 32 32 33 32 31 31 32 33 33 34 34 34 35 32 29 30 32 34 30 30 32 33 33 31 30 31 26 20 18
32 33 37 34 30 29 30 30 30 29 28 29 33 35 33 31 32 33 35 35 35 34 35 36 36 36 36 35 34 31 32 34 33 33 35 37 36 31 29 25 21 19 13
22 32 31 28 30 29 30 29 29 29 29 32 31 33 32 33 35 35 35 36 36 36 34 33 35 36 36 35 35 38 38 40 39 38 40 40 38 38 35 25 20 19 13
34 26 31 30 29 29 29 29 31 33 31 31 35 36 35 35 36 37 37 37 36 36 35 35 35 35 36 36 35 35 37 36 35 37 42 45 44 43 38 32 23 14 11
26 28 28 29 29 30 28 28 31 32 33 33 34 36 38 37 36 35 34 34 35 35 36 34 33 32 32 32 31 31 33 33 33 36 41 42 44 39 36 31 26 22 19
26 28 27 24 27 27 28 28 31 32 33 34 35 34 35 37 38 37 33 30 30 29 29 28 28 27 27 26 26 27 30 33 35 42 45 48 47 39 33 30 29 23 21
Wind_Direction
187 192 199 177 185 169 141 135 151 160 167 176 170 152 140 126 123 127 118 137 148 148 153 163 139 156 148 157 153 146 128 117 104 114 129 145 142 145 144 147 150 158 161
189 188 191 176 181 172 159 155 144 159 172 172 156 145 145 137 131 127 118 109 127 136 138 134 138 154 149 152 152 148 129 127 119 121 129 144 154 149 140 147 149 158 156
192 194 179 175 169 161 158 155 149 150 155 157 151 143 145 141 140 129 119 111 108 126 143 147 150 155 143 144 151 139 136 133 132 122 117 129 134 142 144 141 142 141 142
180 179 163 169 156 146 146 139 144 148 146 143 143 142 144 142 141 130 124 110 108 117 129 143 146 143 143 155 150 146 140 132 137 124 119 113 137 148 156 150 149 143 142
176 172 164 149 138 135 139 133 138 143 139 137 134 142 146 144 134 128 118 115 112 117 127 144 153 147 151 157 153 150 151 143 141 130 132 135 151 167 171 165 145 139 143
181 175 162 146 136 138 143 141 142 143 138 142 138 140 149 152 154 145 126 125 130 133 129 135 154 149 150 155 159 156 158 153 144 142 150 154 163 175 159 152 158 160 151
186 176 167 152 147 145 150 153 154 157 158 152 149 152 156 157 160 158 153 137 139 136 133 136 142 145 147 144 143 144 153 156 159 157 160 167 168 172 168 161 166 160 126
188 183 173 162 159 154 155 161 161 167 167 165 162 159 164 156 152 151 141 140 135 137 139 144 143 142 139 132 142 145 150 162 174 174 200 181 174 181 180 169 161 145 127
192 188 184 178 176 169 165 168 162 153 163 165 159 151 153 148 150 146 131 133 133 136 143 149 155 153 150 146 145 147 161 178 185 188 176 153 151 163 177 174 166 151 112
199 195 188 183 178 180 177 175 167 161 156 158 148 155 154 153 158 153 148 145 136 136 136 137 147 152 154 158 161 158 149 153 164 181 188 184 175 182 187 200 200 170 142
204 200 193 188 184 184 185 181 175 163 155 146 142 151 158 167 163 160 159 152 147 147 153 158 167 161 169 174 165 137 137 137 132 141 150 154 145 147 165 180 179 189 164
205 201 198 195 190 186 187 186 180 172 165 159 150 143 156 168 169 162 163 165 158 154 161 171 178 181 190 198 193 171 154 160 153 148 150 147 147 148 145 146 146 143 123
205 201 200 198 196 192 185 181 181 181 177 173 173 164 158 162 176 180 181 188 188 187 182 182 188 198 207 210 198 195 199 180 167 164 167 163 157 150 140 133 128 121 113
204 205 202 197 195 197 196 191 189 186 187 184 186 187 181 180 183 187 192 193 197 190 184 181 179 177 182 189 197 203 199 197 190 182 173 163 159 155 151 146 138 134 125
201 205 206 203 200 197 200 199 201 203 199 195 198 197 194 198 199 196 193 195 202 207 195 189 191 193 195 198 200 197 197 195 192 185 172 165 163 163 158 158 153 149 140
189 198 204 203 203 205 203 204 211 213 212 218 218 206 208 216 211 207 206 208 206 204 200 202 204 206 206 205 204 201 201 201 198 191 181 176 172 172 164 161 163 159 147
188 195 201 203 202 201 205 206 204 217 222 224 224 228 226 220 219 219 218 216 216 216 218 217 219 218 217 216 214 210 210 209 207 199 192 187 183 181 171 167 160 152 139
192 198 199 201 202 200 203 207 211 211 213 220 226 228 226 229 232 229 223 222 213 218 222 224 225 227 227 225 222 219 216 214 211 205 199 192 188 181 175 169 167 161 152
188 192 197 200 204 206 205 207 210 213 214 223 222 224 226 226 230 232 232 226 222 224 227 230 234 237 236 232 229 226 223 221 217 210 203 197 191 185 175 174 172 169 164
192 194 193 195 198 202 205 205 206 210 213 218 223 223 216 217 218 221 223 225 228 233 235 237 239 239 241 240 234 230 227 225 223 216 208 201 196 192 184 178 174 168 169
189 191 194 191 196 199 201 203 208 210 215 219 227 230 223 217 222 223 224 228 231 234 237 240 243 243 242 241 240 233 224 221 220 216 207 201 194 188 184 178 170 165 148
185 188 188 195 196 196 202 204 206 208 213 217 227 231 230 225 229 230 230 232 235 240 243 242 244 245 246 242 239 234 230 224 218 213 203 195 187 184 174 167 156 151 148
198 186 189 193 199 201 200 204 205 210 214 220 223 227 222 224 229 232 235 238 241 243 245 246 247 250 250 247 243 238 231 227 222 215 200 185 179 174 163 160 160 146 159
195 207 187 192 193 196 197 202 208 215 214 220 225 228 230 230 232 235 238 241 244 247 249 250 249 250 250 248 245 240 237 233 225 207 197 181 173 167 162 162 158 155 186
205 199 205 188 190 195 199 202 211 216 218 221 225 229 233 235 238 239 241 244 248 251 253 254 253 253 252 251 248 239 232 226 212 198 184 175 168 165 165 155 165 183 191
221 205 205 197 191 193 199 202 212 217 224 226 229 234 236 240 244 246 251 250 248 250 253 253 252 250 247 242 238 234 223 214 199 191 184 176 167 166 163 166 178 183 191